Waarnemingen

Advertentie
Mijn weer
Charleroi/Gosselies, België (6449): temperatuur & dauwpunt: 30.11.2019 10:00:00 - 06.12.2019 10:00:00 (CET)Charleroi/Gosselies, België (6449): windsnelheid & windstoten: 30.11.2019 10:00:00 - 06.12.2019 10:00:00 (CET)Charleroi/Gosselies, België (6449): windrichting: 30.11.2019 10:00:00 - 06.12.2019 10:00:00 (CET)Charleroi/Gosselies, België (6449): luchtdruk: 30.11.2019 10:00:00 - 06.12.2019 10:00:00 (CET)Charleroi/Gosselies, België (6449): zicht: 30.11.2019 10:00:00 - 06.12.2019 10:00:00 (CET)
Datum & Tijd tt [°C] td [°C] ff [km/u] ff [kn] fx [km/u] fx [kn] dd ppp [hPa] vv [km]
06.12.2019 10:00:00 2,4 1,3 29 16 - - Z 1014,8 4,0
06.12.2019 09:00:00 2,1 0,6 29 16 43 23 ZZW 1015,6 7
06.12.2019 08:00:00 1,7 -0,2 28 15 47 25 ZZW 1015,7 10
06.12.2019 07:00:00 1,0 -0,7 34 18 - - Z 1015,8 10
06.12.2019 06:00:00 0,5 -0,9 29 16 43 23 ZZW 1016,3 8
06.12.2019 05:00:00 0,2 -1,2 29 16 43 23 Z 1016,9 7
06.12.2019 04:00:00 -0,1 -1,2 26 14 - - Z 1017,6 4,0
06.12.2019 03:00:00 -0,3 -1,3 29 16 43 23 Z 1018,1 4,0
06.12.2019 02:00:00 -0,2 -1,2 24 13 43 23 Z 1018,6 4,0
06.12.2019 01:00:00 0,3 -0,6 24 13 - - ZZW 1019,4 3,0
06.12.2019 00:00:00 0,3 -0,6 24 13 40 21 ZZW 1020,3 3,0
05.12.2019 23:00:00 0,2 -1,0 24 13 36 19 ZZW 1020,8 6
05.12.2019 22:00:00 0,3 -1,1 24 13 - - ZZW 1020,7 6
05.12.2019 21:00:00 0,6 -0,7 22 12 32 18 ZZW 1020,9 6
05.12.2019 20:00:00 0,7 -0,5 22 12 29 16 ZZW 1021,5 6
05.12.2019 19:00:00 0,7 -0,5 16 9 - - ZZW 1022,0 5
05.12.2019 18:00:00 0,1 -1,0 11 6 25 14 ZZW 1022,1 3,5
05.12.2019 17:00:00 -0,2 -0,8 15 8 25 14 Z 1022,7 0,5
05.12.2019 16:00:00 0,6 0,0 16 9 - - ZZW 1022,9 0,5
05.12.2019 15:00:00 1,5 0,4 16 9 25 14 WZW 1022,8 3,2
05.12.2019 14:00:00 1,6 0,6 11 6 18 10 ZW 1022,5 3,0
05.12.2019 13:00:00 1,1 0,2 11 6 - - ZZW 1022,8 2,5
05.12.2019 12:00:00 0,3 -0,5 11 6 18 10 Z 1023,2 1,2
05.12.2019 11:00:00 -0,9 -1,4 13 7 18 10 ZZW 1023,9 0,7
05.12.2019 10:00:00 -1,0 -1,9 13 7 - - WZW 1023,9 3,0
05.12.2019 09:00:00 -1,7 -2,6 11 6 18 10 ZW 1023,6 4,0
05.12.2019 08:00:00 -1,2 -2,3 11 6 14 8 Z 1022,7 4,5
05.12.2019 07:00:00 -1,4 -2,4 8 4 - - ZZW 1022,2 4,5
05.12.2019 06:00:00 -1,0 -2,1 11 6 14 8 Z 1022,1 5
05.12.2019 05:00:00 -1,2 -2,1 8 4 11 6 ZW 1022,2 6
05.12.2019 04:00:00 -1,0 -1,6 9 5 - - ZZW 1022,1 6
05.12.2019 03:00:00 -0,8 -1,5 9 5 11 6 ZZW 1021,9 6
05.12.2019 02:00:00 -0,2 -1,3 9 5 11 6 ZZW 1021,8 7
05.12.2019 01:00:00 -0,2 -1,0 9 5 - - ZZW 1021,6 6
05.12.2019 00:00:00 0,0 -0,9 9 5 11 6 ZZW 1021,8 6
04.12.2019 23:00:00 -0,5 -1,3 5 3 11 6 WZW 1021,5 6
04.12.2019 22:00:00 0,7 -0,1 4 2 - - - 1021,1 8
04.12.2019 21:00:00 0,7 -0,2 4 2 7 4 - 1021,3 10
04.12.2019 20:00:00 2,5 0,8 5 3 11 6 ZZO 1021,2 10
04.12.2019 19:00:00 2,1 0,4 9 5 - - O 1020,7 10
04.12.2019 18:00:00 3,1 0,6 4 2 14 8 - 1020,9 10
04.12.2019 17:00:00 3,6 0,5 9 5 14 8 NO 1020,7 10
04.12.2019 16:00:00 4,8 0,8 8 4 - - NNO 1020,7 10
04.12.2019 15:00:00 5,9 1,0 8 4 11 6 NNO 1020,3 10
04.12.2019 14:00:00 6,4 -0,9 5 3 7 4 O 1020,5 10
04.12.2019 13:00:00 5,9 -0,3 5 3 - - Z 1021,3 8
04.12.2019 12:00:00 4,7 -0,2 9 5 14 8 O 1021,9 8
04.12.2019 11:00:00 3,5 0,5 9 5 14 8 ZO 1022,8 8
04.12.2019 10:00:00 2,0 0,5 9 5 - - ZO 1023,3 8
04.12.2019 09:00:00 0,9 -0,2 9 5 18 10 O 1023,5 8
04.12.2019 08:00:00 -0,2 -0,9 13 7 22 12 ZO 1023,8 6
04.12.2019 07:00:00 0,4 -0,4 5 3 - - OZO 1023,6 6
04.12.2019 06:00:00 -0,9 -1,1 4 2 4 2 ONO 1024,0 5
04.12.2019 05:00:00 -0,4 -0,7 4 2 4 2 - 1024,2 6
04.12.2019 04:00:00 0,5 0,0 4 2 - - OZO 1024,5 7
04.12.2019 03:00:00 0,8 0,1 4 2 7 4 ZO 1025,1 8
04.12.2019 02:00:00 1,1 0,4 4 2 7 4 ZO 1025,6 8
04.12.2019 01:00:00 1,7 0,6 5 3 - - OZO 1026,1 10
04.12.2019 00:00:00 1,5 0,5 8 4 14 8 ZZO 1026,7 10
03.12.2019 23:00:00 2,1 1,0 5 3 18 10 ZZO 1027,0 10
03.12.2019 22:00:00 2,1 1,2 8 4 - - ZZO 1027,2 10
03.12.2019 21:00:00 2,8 1,6 5 3 11 6 ZZO 1027,4 10
03.12.2019 20:00:00 3,4 1,6 9 5 14 8 ZO 1027,9 10
03.12.2019 19:00:00 4,5 1,6 5 3 - - ZZO 1027,9 10
03.12.2019 18:00:00 4,8 2,2 4 2 11 6 - 1028,1 10
03.12.2019 17:00:00 6,0 2,7 4 2 11 6 - 1028,0 10
03.12.2019 16:00:00 6,8 2,3 5 3 - - ZZW 1028,0 10
03.12.2019 15:00:00 7,0 2,1 11 6 18 10 ZW 1028,1 10
03.12.2019 14:00:00 7,5 3,2 11 6 14 8 ZZW 1028,4 10
03.12.2019 13:00:00 6,5 4,1 9 5 - - ZZW 1029,5 8
03.12.2019 12:00:00 4,5 4,0 5 3 14 8 Z 1030,2 1,2
03.12.2019 11:00:00 0,9 0,8 5 3 14 8 ZZW 1031,2 0,2
03.12.2019 10:00:00 0,1 0,0 8 4 - - ZW 1030,9 0,1
03.12.2019 09:00:00 -0,5 -0,6 5 3 14 8 ZW 1031,2 0,1
03.12.2019 08:00:00 -0,4 -0,4 8 4 14 8 ZW 1030,9 0,1
03.12.2019 07:00:00 -0,2 -0,2 4 2 - - ZZW 1030,6 0,1
03.12.2019 06:00:00 0,8 0,6 8 4 11 6 ZZW 1030,6 0,2
03.12.2019 05:00:00 1,0 0,9 11 6 11 6 WZW 1030,9 0,2
03.12.2019 04:00:00 1,8 1,8 9 5 - - ZZW 1031,0 0,8
03.12.2019 03:00:00 2,1 1,9 5 3 14 8 WZW 1030,9 4,0
03.12.2019 02:00:00 2,5 2,3 8 4 14 8 W 1030,9 4,0
03.12.2019 01:00:00 3,1 2,7 5 3 - - WNW 1031,0 4,0
03.12.2019 00:00:00 4,1 3,4 8 4 11 6 NW 1030,7 6
02.12.2019 23:00:00 4,3 3,8 5 3 14 8 WNW 1030,6 5
02.12.2019 22:00:00 4,1 3,6 4 2 - - - 1030,7 3,5
02.12.2019 21:00:00 4,2 3,8 8 4 11 6 W 1030,5 2,8
02.12.2019 20:00:00 4,3 3,8 8 4 11 6 W 1030,2 2,8
02.12.2019 19:00:00 4,2 3,7 5 3 - - W 1030,1 2,5
02.12.2019 18:00:00 4,1 3,5 8 4 14 8 W 1029,7 2,5
02.12.2019 17:00:00 4,1 3,4 8 4 11 6 W 1029,4 3,0
02.12.2019 16:00:00 4,5 3,4 8 4 - - W 1029,4 6
02.12.2019 15:00:00 4,2 3,0 9 5 14 8 W 1029,0 6
02.12.2019 14:00:00 4,2 2,8 8 4 14 8 W 1029,1 5
02.12.2019 13:00:00 3,6 2,2 8 4 - - WZW 1029,3 6
02.12.2019 12:00:00 2,9 1,9 9 5 14 8 WZW 1029,5 5
02.12.2019 11:00:00 1,7 0,9 7 4 11 6 W 1029,4 4,0
02.12.2019 10:00:00 0,7 -0,1 9 5 - - W 1028,8 3,5
02.12.2019 09:00:00 -0,1 -1,0 9 5 11 6 WZW 1028,2 2,5
02.12.2019 08:00:00 -2,0 -2,8 5 3 11 6 ZW 1027,9 2,5
02.12.2019 07:00:00 -0,9 -1,9 4 2 - - - 1027,4 5
02.12.2019 06:00:00 -1,1 -1,8 5 3 11 6 WNW 1026,9 7
02.12.2019 05:00:00 -2,1 -3,1 8 4 11 6 NW 1026,6 8
02.12.2019 04:00:00 -0,8 -2,5 5 3 - - NNW 1026,1 10
02.12.2019 03:00:00 -1,2 -2,5 8 4 22 12 NNW 1025,8 8
02.12.2019 02:00:00 -1,4 -2,7 4 2 11 6 NNO 1024,9 10
02.12.2019 01:00:00 -1,2 -2,6 9 5 - - NNO 1024,9 10
02.12.2019 00:00:00 -0,8 -2,3 9 5 18 10 NNO 1024,7 10
01.12.2019 23:00:00 -0,4 -2,0 13 7 18 10 N 1023,9 10
01.12.2019 22:00:00 -0,4 -1,8 9 5 - - NNO 1022,9 10
01.12.2019 21:00:00 1,0 -1,5 13 7 22 12 NNO 1022,4 10
01.12.2019 20:00:00 1,3 -1,4 16 9 25 14 NO 1021,9 10
01.12.2019 19:00:00 1,8 -1,2 18 10 - - NNO 1021,3 10
01.12.2019 18:00:00 2,1 -1,1 16 9 25 14 NNO 1020,3 10
01.12.2019 17:00:00 2,3 -0,6 16 9 29 16 NO 1019,6 10
01.12.2019 16:00:00 2,5 -0,9 22 12 - - NO 1018,5 10
01.12.2019 15:00:00 2,6 -0,9 22 12 32 18 ONO 1018,5 10
01.12.2019 14:00:00 2,6 -0,5 22 12 32 18 ONO 1018,8 10
01.12.2019 13:00:00 2,2 -0,5 21 11 - - NO 1019,0 10
01.12.2019 12:00:00 1,8 -0,7 21 11 29 16 NO 1018,9 10
01.12.2019 11:00:00 1,4 -0,7 21 11 32 18 NO 1018,9 10
01.12.2019 10:00:00 1,1 -0,9 24 13 - - NO 1018,1 10
01.12.2019 09:00:00 0,7 -1,0 22 12 32 18 ONO 1017,8 10
01.12.2019 08:00:00 0,6 -1,3 22 12 36 19 ONO 1017,3 10
01.12.2019 07:00:00 0,5 -1,0 22 12 - - NO 1017,3 8
01.12.2019 06:00:00 0,3 -1,0 21 11 29 16 ONO 1017,6 6
01.12.2019 05:00:00 0,4 -0,8 21 11 29 16 ONO 1018,0 6
01.12.2019 04:00:00 0,8 -0,8 16 9 - - NO 1018,8 10
01.12.2019 03:00:00 0,7 -0,9 15 8 25 14 NO 1019,5 10
01.12.2019 02:00:00 0,7 -0,8 18 10 22 12 ONO 1019,9 10
01.12.2019 01:00:00 1,5 -0,7 14 8 - - ONO 1019,9 10
01.12.2019 00:00:00 1,2 -0,6 13 7 18 10 ONO 1020,5 10
30.11.2019 23:00:00 1,6 -0,3 11 6 18 10 O 1021,0 10
30.11.2019 22:00:00 1,8 0,1 13 7 - - ONO 1021,5 10
30.11.2019 21:00:00 1,5 0,3 9 5 18 10 O 1022,7 10
30.11.2019 20:00:00 1,9 0,6 11 6 22 12 ONO 1022,6 10
30.11.2019 19:00:00 1,6 0,4 11 6 - - O 1022,5 10
30.11.2019 18:00:00 2,6 0,4 15 8 29 16 ONO 1022,3 10
30.11.2019 17:00:00 3,6 0,8 13 7 22 12 O 1022,3 10
30.11.2019 16:00:00 4,6 1,4 11 6 - - O 1022,7 10
30.11.2019 15:00:00 5,6 0,6 15 8 25 14 O 1022,7 10
30.11.2019 14:00:00 6,1 0,8 11 6 22 12 O 1023,1 10
30.11.2019 13:00:00 5,3 1,6 9 5 - - ZO 1023,8 10
30.11.2019 12:00:00 4,7 2,0 8 4 14 8 ZO 1024,3 10
30.11.2019 11:00:00 3,5 2,1 9 5 11 6 ZO 1024,5 10
30.11.2019 10:00:00 1,5 0,7 4 2 - - - 1024,3 4,0

tt = temperatuur
td = dauwpunt
ff = windsnelheid
fx = windstoten
dd = windrichting
ppp = luchtdruk
vv = zicht

Weerstations in de omgeving